{"data":{"norad_id":31124,"epoch":"2026-09-19T16:18:05.116896Z","epoch_age_seconds":89145,"freshness":"FRESH","line1":"1 31124U 07012H   26262.67922589  .00000326  00000+0  64842-4 0  9995","line2":"2 31124  98.3614 239.5356 0047050 186.7887 173.2686 14.68259252 37465","mean_motion":14.68259252,"eccentricity":0.004705,"inclination_deg":98.3614,"raan_deg":239.5356,"arg_perigee_deg":186.7887,"mean_anomaly_deg":173.2686,"bstar":6.4842e-5,"rev_number":3746,"period_min":98.075322735988,"perigee_km":633.48507313839,"apogee_km":699.77633724424,"semimajor_km":7044.7677051913,"source":"CELESTRAK","updated_at":"2026-09-20T09:00:13.652426Z"}}